This is the latest recevied weather packets stored in our database for station/object K0WOI. If no packets are shown the sender has not sent any weather packets the latest 10 day(s).
| Time | Temp. | Humidity | Pressure | Rain* | Wind** | Luminosity | Snow |
|---|---|---|---|---|---|---|---|
| 1777769605 | 16.11° C | 32% | 1014.4 hPa | 0 mm | - | 11 W/m² | - |
| 1777769301 | 16.67° C | 31% | 1014.4 hPa | 0 mm | - | 13 W/m² | - |
| 1777768999 | 16.67° C | 31% | 1014.5 hPa | 0 mm | - | 17 W/m² | - |
| 1777768696 | 16.67° C | 30% | 1014.3 hPa | 0 mm | - | 20 W/m² | - |
| 1777768393 | 16.67° C | 30% | 1014.5 hPa | 0 mm | - | 23 W/m² | - |
| 1777768090 | 16.67° C | 29% | 1014.7 hPa | 0 mm | - | 25 W/m² | - |
| 1777767787 | 16.67° C | 29% | 1014.7 hPa | 0 mm | - | 28 W/m² | - |
| 1777767483 | 17.22° C | 30% | 1014.7 hPa | 0 mm | - | 30 W/m² | - |
| 1777767179 | 17.22° C | 31% | 1014.8 hPa | 0 mm | - | 32 W/m² | - |
| 1777766877 | 17.22° C | 30% | 1014.8 hPa | 0 mm | - | 34 W/m² | - |
| 1777766574 | 17.22° C | 30% | 1014.8 hPa | 0 mm | - | 41 W/m² | - |
| 1777766271 | 17.78° C | 28% | 1014.8 hPa | 0 mm | - | 39 W/m² | - |
| 1777765969 | 17.78° C | 28% | 1015 hPa | 0 mm | - | 70 W/m² | - |
| 1777765665 | 17.78° C | 29% | 1015 hPa | 0 mm | - | 75 W/m² | - |
| 1777765362 | 17.78° C | 30% | 1015 hPa | 0 mm | - | 46 W/m² | - |
| 1777765058 | 17.78° C | 31% | 1015.4 hPa | 0 mm | - | 47 W/m² | - |
| 1777764755 | 17.78° C | 29% | 1015 hPa | 0 mm | - | 52 W/m² | - |
| 1777764451 | 17.78° C | 29% | 1015.1 hPa | 0 mm | - | 52 W/m² | - |
| 1777764148 | 17.78° C | 29% | 1015.2 hPa | 0 mm | - | 51 W/m² | - |
| 1777763845 | 17.78° C | 30% | 1015.4 hPa | 0 mm | - | 108 W/m² | - |
| 1777763543 | 17.78° C | 29% | 1015.3 hPa | 0 mm | - | 162 W/m² | - |
| 1777763241 | 17.78° C | 32% | 1015.4 hPa | 0 mm | - | 147 W/m² | - |
| 1777762939 | 17.78° C | 29% | 1015.4 hPa | 0 mm | - | 106 W/m² | - |
| 1777762635 | 17.78° C | 29% | 1015.6 hPa | 0 mm | - | 84 W/m² | - |
| 1777762332 | 17.78° C | 30% | 1015.5 hPa | 0 mm | - | 62 W/m² | - |
* Rain latest hour (hover to see other rain measurements)
** Current wind speed in m/s (hover to see current wind gust speed)